| time (UTC) | temp F | wind direction | speed knots | gust knots | rain 1hr in | rain 24hr in | rain mn in | humidity % | barometer mb |
| 20260901091558 | 66 | 165 | 0.0 | 0.0 | 0.00 | 0.04 | 0.00 | 93 | 1015.0 |
| 20260901090042 | 66 | 165 | 0.0 | 0.0 | 0.00 | 0.04 | 0.00 | 93 | 1015.0 |
| 20260901084540 | 66 | 165 | 0.0 | 0.0 | 0.00 | 0.04 | 0.00 | 94 | 1015.1 |
| 20260901083044 | 66 | 165 | 0.0 | 0.0 | 0.00 | 0.04 | 0.00 | 93 | 1015.2 |
| 20260901081537 | 66 | 165 | 0.0 | 0.9 | 0.00 | 0.04 | 0.00 | 93 | 1015.4 |
| 20260901080043 | 66 | 165 | 0.0 | 0.0 | 0.00 | 0.04 | 0.00 | 93 | 1015.2 |
| 20260901074536 | 66 | 165 | 0.0 | 0.0 | 0.00 | 0.04 | 0.00 | 93 | 1015.4 |
| 20260901073036 | 66 | 165 | 0.0 | 0.0 | 0.00 | 0.04 | 0.00 | 92 | 1015.6 |
| 20260901071535 | 66 | 165 | 0.0 | 0.0 | 0.00 | 0.04 | 0.00 | 92 | 1015.4 |
| 20260901070036 | 66 | 165 | 0.0 | 0.0 | 0.00 | 0.04 | 0.00 | 92 | 1015.5 |
| 20260901064537 | 67 | 165 | 0.0 | 0.0 | 0.00 | 0.04 | 0.00 | 92 | 1015.5 |
| 20260901063029 | 67 | 165 | 0.0 | 0.0 | 0.00 | 0.04 | 0.00 | 93 | 1015.8 |
| 20260901061528 | 67 | 165 | 0.0 | 0.0 | 0.00 | 0.04 | 0.00 | 93 | 1015.8 |
| 20260901060026 | 67 | 165 | 0.0 | 0.0 | 0.00 | 0.04 | 0.00 | 92 | 1016.0 |
| 20260901054525 | 67 | 165 | 0.0 | 0.0 | 0.00 | 0.04 | 0.00 | 92 | 1015.9 |
| 20260901053025 | 67 | 165 | 0.0 | 0.0 | 0.00 | 0.04 | 0.00 | 92 | 1016.1 |
| 20260901051522 | 67 | 165 | 0.0 | 0.9 | 0.00 | 0.04 | 0.00 | 92 | 1016.3 |
| 20260901050021 | 68 | 165 | 0.0 | 0.9 | 0.00 | 0.04 | 0.00 | 92 | 1016.5 |
| 20260901044520 | 68 | 153 | 0.0 | 1.7 | 0.00 | 0.04 | 0.00 | 92 | 1016.4 |
| 20260901043020 | 68 | 151 | 0.0 | 0.0 | 0.00 | 0.04 | 0.00 | 92 | 1016.4 |
| 20260901041518 | 68 | 151 | 0.0 | 1.7 | 0.00 | 0.04 | 0.00 | 92 | 1016.4 |
| 20260901040020 | 68 | 151 | 0.0 | 1.7 | 0.00 | 0.04 | 0.00 | 92 | 1016.3 |
| 20260901034516 | 67 | 351 | 0.0 | 1.7 | 0.00 | 0.04 | 0.04 | 92 | 1016.3 |
| 20260901033033 | 67 | 171 | 0.0 | 2.6 | 0.00 | 0.04 | 0.04 | 92 | 1016.3 |
| 20260901031514 | 67 | 196 | 0.0 | 1.7 | 0.00 | 0.04 | 0.04 | 92 | 1016.6 |
| 20260901030015 | 67 | 167 | 0.0 | 0.0 | 0.00 | 0.04 | 0.04 | 92 | 1016.6 |
| 20260901024511 | 67 | 160 | 0.0 | 0.0 | 0.00 | 0.04 | 0.04 | 93 | 1016.8 |
| 20260901023011 | 67 | 160 | 0.0 | 0.0 | 0.00 | 0.04 | 0.04 | 92 | 1017.0 |
| 20260901021517 | 67 | 160 | 0.0 | 0.0 | 0.00 | 0.04 | 0.04 | 92 | 1017.1 |
| 20260901020011 | 67 | 160 | 0.0 | 0.0 | 0.00 | 0.04 | 0.04 | 92 | 1017.2 |
| 20260901014510 | 67 | 160 | 0.0 | 0.0 | 0.00 | 0.04 | 0.04 | 92 | 1017.1 |
| 20260901013009 | 67 | 160 | 0.0 | 0.0 | 0.00 | 0.04 | 0.04 | 92 | 1017.2 |
| 20260901011509 | 67 | 160 | 0.0 | 0.0 | 0.00 | 0.04 | 0.04 | 92 | 1017.0 |
| 20260901010009 | 67 | 159 | 0.0 | 0.0 | 0.00 | 0.04 | 0.04 | 92 | 1016.8 |
| 20260901004508 | 67 | 159 | 0.0 | 0.0 | 0.00 | 0.04 | 0.04 | 91 | 1016.9 |
| 20260901003011 | 67 | 160 | 0.0 | 0.0 | 0.00 | 0.04 | 0.04 | 91 | 1016.8 |
| 20260901001514 | 67 | 160 | 0.0 | 0.0 | 0.00 | 0.04 | 0.04 | 91 | 1016.6 |
| 20260901000006 | 68 | 160 | 0.0 | 0.0 | 0.00 | 0.04 | 0.04 | 90 | 1016.8 |
| 20260831234515 | 68 | 160 | 0.0 | 0.0 | 0.00 | 0.05 | 0.04 | 90 | 1017.0 |
| 20260831233004 | 68 | 159 | 0.0 | 0.0 | 0.00 | 0.05 | 0.04 | 90 | 1016.9 |
| 20260831231503 | 68 | 160 | 0.0 | 0.0 | 0.00 | 0.05 | 0.04 | 90 | 1016.9 |
| 20260831230002 | 68 | 160 | 0.0 | 0.9 | 0.00 | 0.05 | 0.04 | 90 | 1017.1 |
| 20260831224600 | 68 | 160 | 0.0 | 0.9 | 0.00 | 0.05 | 0.04 | 90 | 1017.2 |
| 20260831223058 | 68 | 159 | 0.0 | 1.7 | 0.00 | 0.05 | 0.04 | 89 | 1017.3 |
| 20260831221604 | 69 | 160 | 0.0 | 2.6 | 0.00 | 0.05 | 0.04 | 89 | 1017.4 |
| 20260831220124 | 69 | 159 | 0.0 | 2.6 | 0.00 | 0.05 | 0.04 | 89 | 1017.3 |
| 20260831214557 | 69 | 182 | 0.9 | 2.6 | 0.00 | 0.05 | 0.04 | 90 | 1017.3 |
| 20260831213059 | 68 | 166 | 0.0 | 1.7 | 0.00 | 0.05 | 0.04 | 90 | 1017.3 |
| 20260831211554 | 68 | 166 | 0.9 | 2.6 | 0.00 | 0.05 | 0.04 | 90 | 1017.5 |
| 20260831210054 | 68 | 165 | 0.0 | 2.6 | 0.00 | 0.05 | 0.04 | 90 | 1017.5 |
| 20260831204558 | 68 | 198 | 0.0 | 0.0 | 0.00 | 0.05 | 0.04 | 90 | 1017.6 |
| 20260831203111 | 68 | 198 | 0.0 | 1.7 | 0.00 | 0.05 | 0.04 | 90 | 1017.6 |
| 20260831201551 | 68 | 198 | 0.0 | 1.7 | 0.01 | 0.05 | 0.04 | 90 | 1017.7 |
| 20260831200054 | 68 | 198 | 0.0 | 0.0 | 0.01 | 0.05 | 0.04 | 91 | 1017.8 |
| 20260831194548 | 68 | 198 | 0.0 | 0.0 | 0.01 | 0.05 | 0.04 | 91 | 1018.0 |
| 20260831193050 | 68 | 198 | 0.0 | 0.9 | 0.02 | 0.05 | 0.04 | 90 | 1018.1 |
| 20260831191548 | 68 | 198 | 0.0 | 0.9 | 0.01 | 0.04 | 0.03 | 89 | 1018.3 |
| 20260831190057 | 68 | 198 | 0.0 | 0.9 | 0.02 | 0.04 | 0.03 | 90 | 1018.7 |
| 20260831184545 | 67 | 202 | 0.0 | 1.7 | 0.03 | 0.04 | 0.03 | 90 | 1018.7 |
| 20260831183045 | 67 | 204 | 0.0 | 0.0 | 0.02 | 0.03 | 0.02 | 89 | 1018.9 |
| 20260831181554 | 67 | 204 | 0.0 | 0.0 | 0.02 | 0.03 | 0.02 | 87 | 1019.1 |
| 20260831180044 | 68 | 204 | 0.0 | 1.7 | 0.01 | 0.02 | 0.01 | 86 | 1019.1 |
| 20260831174550 | 69 | 182 | 0.9 | 1.7 | 0.00 | 0.01 | 0.00 | 83 | 1019.2 |
| 20260831173043 | 69 | 182 | 0.0 | 2.6 | 0.00 | 0.01 | 0.00 | 81 | 1019.2 |
| 20260831171544 | 69 | 182 | 0.0 | 1.7 | 0.00 | 0.01 | 0.00 | 80 | 1019.1 |
| 20260831170042 | 69 | 182 | 0.0 | 1.7 | 0.00 | 0.01 | 0.00 | 79 | 1019.1 |
| 20260831164541 | 69 | 182 | 0.9 | 2.6 | 0.00 | 0.01 | 0.00 | 80 | 1019.2 |
| 20260831163043 | 69 | 182 | 0.0 | 0.9 | 0.00 | 0.01 | 0.00 | 79 | 1019.2 |
| 20260831161540 | 70 | 182 | 0.0 | 2.6 | 0.00 | 0.01 | 0.00 | 76 | 1019.1 |
| 20260831160100 | 70 | 173 | 0.9 | 2.6 | 0.00 | 0.01 | 0.00 | 76 | 1019.1 |
| 20260831154552 | 70 | 167 | 0.9 | 4.3 | 0.00 | 0.01 | 0.00 | 75 | 1019.2 |
| 20260831153124 | 70 | 171 | 1.7 | 4.3 | 0.00 | 0.01 | 0.00 | 77 | 1019.2 |
| 20260831151548 | 69 | 145 | 0.0 | 2.6 | 0.00 | 0.01 | 0.00 | 80 | 1019.2 |
| 20260831150046 | 69 | 144 | 0.0 | 1.7 | 0.00 | 0.01 | 0.00 | 80 | 1019.1 |
| 20260831144542 | 68 | 143 | 0.9 | 1.7 | 0.00 | 0.01 | 0.00 | 83 | 1019.2 |
| 20260831143040 | 67 | 49 | 0.0 | 1.7 | 0.00 | 0.01 | 0.00 | 86 | 1019.2 |
| 20260831141543 | 67 | 49 | 0.0 | 0.9 | 0.00 | 0.01 | 0.00 | 87 | 1019.4 |
| 20260831140037 | 66 | 49 | 0.0 | 0.9 | 0.00 | 0.01 | 0.00 | 86 | 1019.4 |
| 20260831134533 | 66 | 49 | 0.0 | 0.0 | 0.00 | 0.01 | 0.00 | 89 | 1019.2 |
| 20260831133033 | 65 | 49 | 0.0 | 0.0 | 0.00 | 0.01 | 0.00 | 90 | 1019.3 |
| 20260831131533 | 65 | 49 | 0.0 | 0.0 | 0.00 | 0.01 | 0.00 | 92 | 1019.3 |
| 20260831130040 | 64 | 49 | 0.0 | 0.0 | 0.00 | 0.01 | 0.00 | 92 | 1019.1 |
| 20260831124529 | 64 | 49 | 0.0 | 0.0 | 0.00 | 0.01 | 0.00 | 93 | 1019.2 |
| 20260831123041 | 64 | 49 | 0.0 | 0.0 | 0.00 | 0.01 | 0.00 | 94 | 1019.2 |
| 20260831121536 | 63 | 46 | 0.0 | 0.0 | 0.00 | 0.01 | 0.00 | 94 | 1019.3 |
| 20260831120053 | 63 | 46 | 0.0 | 0.0 | 0.00 | 0.01 | 0.00 | 94 | 1019.2 |
| 20260831114532 | 63 | 46 | 0.0 | 0.0 | 0.00 | 0.01 | 0.00 | 94 | 1019.3 |
| 20260831113026 | 63 | 44 | 0.0 | 0.0 | 0.00 | 0.01 | 0.00 | 94 | 1019.1 |
| 20260831111525 | 63 | 44 | 0.0 | 0.0 | 0.00 | 0.01 | 0.00 | 94 | 1019.1 |
| 20260831110023 | 63 | 44 | 0.0 | 0.0 | 0.00 | 0.01 | 0.00 | 93 | 1018.9 |
| 20260831104535 | 63 | 44 | 0.0 | 0.0 | 0.00 | 0.01 | 0.00 | 93 | 1018.8 |
| 20260831103021 | 63 | 44 | 0.0 | 0.0 | 0.00 | 0.01 | 0.00 | 93 | 1018.5 |
| 20260831101524 | 63 | 44 | 0.0 | 0.0 | 0.00 | 0.01 | 0.00 | 93 | 1018.5 |
| 20260831100026 | 63 | 44 | 0.0 | 0.0 | 0.00 | 0.01 | 0.00 | 93 | 1018.3 |
| 20260831094520 | 63 | 44 | 0.0 | 0.0 | 0.00 | 0.01 | 0.00 | 93 | 1018.6 |
| 20260831093019 | 63 | 44 | 0.0 | 0.0 | 0.00 | 0.01 | 0.00 | 93 | 1018.6 |